Orbital Elements at Epoch 2459200.5 (2020-Dec-17.0) TDB
Reference: JPL 38 (heliocentric ecliptic J2000)
Element | Value | Uncertainty (1-sigma) | Units |
e | .1604527899869964 | 9.2281e-09 | |
a | 2.583373509931732 | 1.0082e-08 | au |
q | 2.168864022684686 | 2.2435e-08 | au |
i | 14.87835045946051 | 1.009e-06 | deg |
node | 78.37955282637655 | 6.8545e-06 | deg |
peri | 339.2785830190103 | 1.2388e-05 | deg |
M | 110.1330213966975 | 8.7911e-06 | deg |
tp | 2458736.525317842189 (2019-Sep-10.02531784) | 3.6312e-05 | TDB |
period | 1516.628559341609 4.15 | 8.878e-06 2.431e-08 | d yr |
n | .2373686014170018 | 1.3895e-09 | deg/d |
Q | 2.997882997178778 | 1.1699e-08 | au |
|
| | Orbit Determination Parameters
Additional Information
|